This demonstration page uses our WeatherBlox Daily Observations layout. Learn more.

Left ArrowRight Arrow

Hourly Observations for July 14, 2020

Temp ( °F °C ) Dew Point ( °F °C ) Humidity (%) Winds ( mph kmh ) Pressure ( in mb ) Visibility ( mi km ) Precip ( " mm )
12:15 am 00:15 Partly Cloudy 73 23 64 18 74 74 Calm 29.93 1013 10 16.0934 0 0
12:35 am 00:35 Partly Cloudy 73 23 64 18 74 74 NNW 6 9 29.93 1013 10 16.0934 0 0
12:55 am 00:55 Mostly Cloudy 73 23 66 19 78 78 N 5 7 29.93 1013 10 16.0934 0 0
1:15 am 01:15 Mostly Cloudy 72 22 66 19 83 83 N 6 9 29.93 1013 10 16.0934 0 0
1:35 am 01:35 Cloudy 73 23 66 19 78 78 Calm 29.94 1014 10 16.0934 0 0
2:15 am 02:15 Cloudy 73 23 64 18 74 74 Calm 29.94 1014 10 16.0934 0 0
2:35 am 02:35 Cloudy 72 22 66 19 83 83 Calm 29.94 1014 10 16.0934 0 0
2:55 am 02:55 Cloudy 72 22 66 19 83 83 Calm 29.94 1014 10 16.0934 0 0
3:15 am 03:15 Cloudy 72 22 66 19 83 83 Calm 29.94 1014 10 16.0934 0 0
4:15 am 04:15 Mostly Cloudy 70 21 66 19 88 88 NW 3 6 29.95 1014 10 16.0934 0 0
4:35 am 04:35 Cloudy 70 21 66 19 88 88 NNW 6 9 29.96 1015 10 16.0934 0 0
4:55 am 04:55 Cloudy 70 21 64 18 83 83 NNW 5 7 29.96 1015 10 16.0934 0 0
5:15 am 05:15 Cloudy 70 21 64 18 83 83 NNW 3 6 29.97 1015 10 16.0934 0 0
5:35 am 05:35 Cloudy 70 21 64 18 83 83 N 6 9 29.97 1015 10 16.0934 0 0
5:55 am 05:55 Mostly Cloudy 68 20 64 18 88 88 NNW 6 9 29.99 1016 10 16.0934 0 0
6:35 am 06:35 Mostly Cloudy 68 20 63 17 83 83 NNW 3 6 29.99 1016 10 16.0934 0 0
6:55 am 06:55 Mostly Cloudy 70 21 64 18 83 83 NNW 5 7 30.01 1016 10 16.0934 0 0
7:15 am 07:15 Mostly Cloudy 70 21 64 18 83 83 NW 3 6 30.01 1016 10 16.0934 0 0
7:35 am 07:35 Partly Cloudy 72 22 63 17 73 73 N 5 7 30.02 1017 10 16.0934 0 0
7:55 am 07:55 Partly Cloudy 72 22 63 17 73 73 N 5 7 30.02 1017 10 16.0934 0 0
8:15 am 08:15 Sunny 73 23 63 17 69 69 N 5 7 30.03 1017 10 16.0934 0 0
8:35 am 08:35 Partly Cloudy 75 24 61 16 61 61 N 5 7 30.03 1017 10 16.0934 0 0
8:55 am 08:55 Partly Cloudy 77 25 63 17 61 61 N 5 7 30.03 1017 10 16.0934 0 0
9:15 am 09:15 Sunny 77 25 61 16 57 57 N 3 6 30.03 1017 10 16.0934 0 0
9:35 am 09:35 Sunny 77 25 63 17 61 61 N 5 7 30.03 1017 10 16.0934 0 0
9:55 am 09:55 Sunny 77 25 61 16 57 57 NNE 5 7 30.03 1017 10 16.0934 0 0
10:15 am 10:15 Partly Cloudy 79 26 63 17 58 58 NNW 7 11 30.02 1017 10 16.0934 0 0
10:35 am 10:35 Partly Cloudy 79 26 61 16 54 54 NNW 10 17 30.03 1017 10 16.0934 0 0
10:55 am 10:55 Sunny 81 27 63 17 54 54 NW 13 20 30.03 1017 10 16.0934 0 0
11:15 am 11:15 Sunny 81 27 63 17 54 54 N 9 15 30.02 1017 10 16.0934 0 0
11:35 am 11:35 Sunny 81 27 63 17 54 54 N 6 9 30.03 1017 10 16.0934 0 0
11:55 am 11:55 Sunny 81 27 63 17 54 54 NNW 9 15 30.03 1017 10 16.0934 0 0
12:15 pm 12:15 Sunny 82 28 64 18 55 55 NW 10 17 30.02 1017 10 16.0934 0 0
12:35 pm 12:35 Sunny 81 27 63 17 54 54 NNW 5 7 30.02 1017 10 16.0934 0 0
12:55 pm 12:55 Sunny 82 28 61 16 48 48 NW 12 19 30.02 1017 10 16.0934 0 0
1:15 pm 13:15 Sunny 82 28 61 16 48 48 N 3 6 30.03 1017 10 16.0934 0 0
1:35 pm 13:35 Sunny 84 29 59 15 43 43 N 6 9 30.03 1017 10 16.0934 0 0
1:55 pm 13:55 Sunny 84 29 57 14 40 40 NNW 13 20 30.02 1017 10 16.0934 0 0
2:15 pm 14:15 Sunny 84 29 59 15 43 43 NNW 9 15 30.02 1017 10 16.0934 0 0
2:35 pm 14:35 Sunny 86 30 59 15 40 40 NW 10 17 30.01 1016 10 16.0934 0 0
2:55 pm 14:55 Sunny 86 30 57 14 38 38 N 6 9 30.01 1016 10 16.0934 0 0
3:15 pm 15:15 Sunny 86 30 59 15 40 40 NNW 9 15 30.01 1016 10 16.0934 0 0
3:35 pm 15:35 Sunny 86 30 55 13 35 35 NNW 5 7 30 1016 10 16.0934 0 0
3:55 pm 15:55 Sunny 86 30 57 14 38 38 N 10 17 30.01 1016 10 16.0934 0 0
4:15 pm 16:15 Sunny 86 30 54 12 33 33 NNE 3 6 30.01 1016 10 16.0934 0 0
4:35 pm 16:35 Sunny 86 30 54 12 33 33 NNW 5 7 30.01 1016 10 16.0934 0 0
4:55 pm 16:55 Sunny 86 30 55 13 35 35 N 3 6 30.01 1016 10 16.0934 0 0
5:15 pm 17:15 Sunny 86 30 55 13 35 35 N 8 13 30.02 1017 10 16.0934 0 0
5:35 pm 17:35 Sunny 86 30 55 13 35 35 Calm 30.02 1017 10 16.0934 0 0
5:55 pm 17:55 Sunny 86 30 55 13 35 35 NNW 6 9 30.02 1017 10 16.0934 0 0
6:15 pm 18:15 Sunny 86 30 55 13 35 35 NNE 7 11 30.02 1017 10 16.0934 0 0
6:35 pm 18:35 Sunny 86 30 55 13 35 35 NNE 7 11 30.02 1017 10 16.0934 0 0
6:55 pm 18:55 Sunny 86 30 55 13 35 35 NNE 7 11 30.03 1017 10 16.0934 0 0
7:15 pm 19:15 Sunny 86 30 55 13 35 35 NNE 6 9 30.03 1017 10 16.0934 0 0
7:35 pm 19:35 Sunny 84 29 55 13 37 37 NNE 6 9 30.04 1017 10 16.0934 0 0
7:55 pm 19:55 Sunny 84 29 55 13 37 37 NNE 5 7 30.04 1017 10 16.0934 0 0
8:15 pm 20:15 Sunny 82 28 57 14 42 42 N 5 7 30.05 1018 10 16.0934 0 0
8:35 pm 20:35 Sunny 81 27 59 15 48 48 Calm 30.05 1018 10 16.0934 0 0
8:55 pm 20:55 Clear 79 26 61 16 54 54 Calm 30.05 1018 10 16.0934 0 0
9:15 pm 21:15 Clear 77 25 61 16 57 57 Calm 30.06 1018 10 16.0934 0 0
9:35 pm 21:35 Clear 73 23 63 17 69 69 Calm 30.07 1018 10 16.0934 0 0
9:55 pm 21:55 Clear 73 23 63 17 69 69 Calm 30.08 1019 10 16.0934 0 0
10:15 pm 22:15 Clear 73 23 63 17 69 69 Calm 30.08 1019 10 16.0934 0 0
10:35 pm 22:35 Clear 72 22 63 17 73 73 Calm 30.09 1019 10 16.0934 0 0
10:55 pm 22:55 Clear 72 22 63 17 73 73 Calm 30.09 1019 10 16.0934 0 0
11:15 pm 23:15 Clear 70 21 63 17 78 78 Calm 30.09 1019 10 16.0934 0 0
11:35 pm 23:35 Clear 70 21 63 17 78 78 Calm 30.09 1019 10 16.0934 0 0
11:55 pm 23:55 Clear 70 21 63 17 78 78 WNW 3 6 30.09 1019 10 16.0934 0 0

Powered by AerisWeather